User: anonymous   Login
Location: Franzen
(48.6167°N, 15.3833°E)
Time: 20:39:34
(UTC+00:00)
Language:

Cosmos 1953 Rocket - Orbit

View from above orbital plane
View from above orbital plane
View from above satellite
View from above satellite

Ground track
Ground track

The orbit data is extracted from the following two-line orbital elements,

1 19211U 88050B   21172.52537625  .00000053  00000-0  35317-5 0  9995
2 19211  82.5269 271.7591 0021023 332.1306  27.8780 14.83114636783968
Epoch (UTC): 21 June 2021 12:36:32
Eccentricity: 0.0021023
inclination: 82.5269°
perigee height: 605 km
apogee height: 634 km
right ascension of ascending node: 271.7591°
argument of perigee: 332.1306°
revolutions per day: 14.83114636
mean anomaly at epoch: 27.8780°
orbit number at epoch: 78396

The dashed part of the orbit path shows where the satellite is in the earth's shadow,  

DLR